Vorticity
3 3 2 2 2 2 3 3 3 3 3 3 3 3 3 3 3 3 3 3 3 4 4 4 4 5 5 6 6 7 7 8 9 9 10 10 11 11 12 12 12 11 11 11 10 10 10 10 10 10 9 9 9 9 9 9 9 9 8 9 9 9 9 9 9 9 9 9 9 9 9 9 9 9 10 10 10 10 10 9 9 9 9 9 9 9 9 10 10 10 10 10 10 10 10 9 9 9 10 10 10 10 10
4 3 3 3 3 3 3 3 3 3 3 3 3 3 3 3 3 3 3 3 3 3 3 3 3 4 4 4 4 5 5 6 6 7 7 8 9 9 10 10 11 11 11 11 11 11 10 10 10 10 10 10 10 9 9 9 9 9 9 9 9 9 9 9 9 9 9 9 9 9 9 9 9 9 9 10 10 10 10 10 10 10 9 9 9 9 9 9 9 10 10 10 10 10 10 9 9 9 9 9 9 9 9
5 4 4 4 4 4 4 4 4 4 4 4 4 3 3 3 3 3 3 3 3 3 3 3 3 3 3 3 3 3 4 4 4 4 5 5 6 7 7 8 9 10 10 10 10 10 10 10 10 10 10 10 10 10 10 9 9 9 9 9 9 9 9 9 9 9 9 9 9 9 9 9 9 9 9 9 9 9 9 9 10 10 9 9 9 9 8 8 8 9 9 9 9 9 9 9 9 9 9 8 8 8 8
6 6 6 6 6 5 5 5 5 5 5 5 4 4 4 3 3 3 3 3 3 3 3 3 3 3 3 3 3 3 3 3 3 3 4 4 4 4 5 6 6 7 8 8 9 10 10 10 10 10 10 10 10 10 10 9 9 9 9 8 8 8 8 8 8 8 8 8 8 8 9 9 9 9 8 9 9 9 9 9 9 9 9 9 9 9 9 8 8 8 8 8 8 8 8 8 8 8 8 8 8 8 7
8 8 8 8 8 7 7 7 7 6 6 6 6 5 5 4 4 4 4 4 3 3 3 3 3 3 3 3 3 3 3 3 3 3 3 3 3 4 4 4 4 5 6 6 7 8 8 9 9 9 10 10 10 10 10 9 9 9 9 8 8 8 8 8 8 8 8 8 8 8 8 8 8 8 8 8 8 8 8 8 8 8 8 8 8 8 8 8 8 8 8 7 7 7 7 7 7 6 7 7 7 7 7
10 10 10 10 10 10 10 9 9 8 8 7 7 6 6 6 5 5 5 4 4 4 4 4 4 4 4 4 4 4 4 4 4 3 3 3 3 3 3 4 4 4 4 5 5 6 6 7 8 8 9 9 9 10 10 9 9 9 9 8 8 8 8 7 7 7 7 7 7 7 7 8 8 8 8 7 7 7 7 7 7 7 7 7 7 7 7 7 7 7 7 7 6 6 6 6 6 6 6 6 6 6 6
11 12 12 12 12 12 11 11 10 10 9 8 8 8 7 7 7 6 6 6 5 5 5 5 5 4 4 4 4 4 4 4 4 4 4 4 4 4 4 4 4 4 4 4 4 4 5 5 6 6 7 8 8 8 9 9 9 9 9 9 8 8 8 7 7 7 7 7 7 7 7 7 7 7 7 7 7 7 6 6 6 6 6 6 6 6 6 6 6 6 6 6 6 6 5 5 5 5 5 5 5 5 5
12 13 13 13 13 13 12 12 11 11 10 10 9 9 8 8 8 7 7 7 6 6 6 6 6 6 6 6 5 5 5 5 5 4 4 4 4 4 4 4 4 4 4 4 4 4 4 4 4 5 5 6 6 7 8 8 9 9 9 9 9 8 8 8 8 7 7 7 7 7 7 7 7 7 6 6 6 6 6 6 6 6 6 5 5 5 5 5 5 5 5 5 5 5 5 5 5 5 5 5 5 5 5
12 12 12 12 12 12 12 12 11 11 10 10 9 9 8 8 8 8 8 7 7 7 7 7 7 7 6 6 6 6 6 5 5 5 5 5 4 4 4 4 4 4 4 4 4 4 4 4 4 4 4 5 5 6 6 7 7 8 8 8 8 8 8 8 8 8 8 7 7 7 7 7 7 6 6 6 6 6 6 6 6 5 5 5 5 5 5 5 5 5 4 4 4 5 5 5 5 5 5 5 5 5 5
10 10 10 10 10 10 10 10 10 10 10 10 9 9 8 8 8 8 7 7 7 7 7 7 7 7 7 7 6 6 6 6 5 5 5 5 5 5 5 5 5 4 4 4 4 4 4 4 4 4 4 4 4 4 5 5 6 6 7 7 7 8 8 8 8 8 8 8 8 7 7 7 7 6 6 6 6 6 6 6 6 6 5 5 5 5 5 4 4 4 4 4 4 4 4 4 4 4 5 5 5 5 5
7 7 8 8 8 8 8 8 9 9 9 8 8 8 8 7 7 7 7 7 7 7 7 7 7 7 7 6 6 6 6 5 5 5 5 5 5 5 5 5 5 5 5 5 5 5 5 5 4 4 4 4 4 4 4 4 5 5 5 6 6 6 7 7 8 8 8 8 8 8 8 7 7 7 6 6 6 6 6 6 6 6 6 5 5 5 5 5 5 4 4 4 4 4 4 4 4 4 4 5 5 5 5
6 6 6 6 6 6 6 6 7 7 7 7 7 7 6 6 6 6 6 6 6 6 6 6 6 6 6 6 6 5 5 5 5 5 5 5 5 5 5 5 5 5 5 5 5 5 5 5 5 5 4 4 4 4 4 4 4 4 4 5 5 5 6 6 6 7 7 8 8 8 8 8 8 7 7 7 7 6 6 6 6 6 6 5 5 5 5 5 5 5 5 5 5 5 4 5 5 4 4 4 5 5 5
5 5 5 5 5 5 5 5 5 5 6 6 6 6 6 6 6 6 6 6 6 6 6 6 5 5 5 5 5 5 5 5 5 5 5 5 5 5 5 5 5 5 5 5 5 5 5 5 5 5 5 5 4 4 4 4 4 4 4 4 4 4 5 5 5 6 6 7 7 8 8 8 8 8 8 8 8 7 7 7 6 6 6 6 6 6 5 5 5 5 5 5 5 5 5 5 5 5 5 5 5 5 5
4 4 4 4 4 4 4 4 4 4 4 4 4 5 5 5 5 5 5 5 5 5 5 5 5 5 5 5 5 5 5 5 5 5 5 5 5 5 5 5 5 5 5 5 5 5 5 5 5 5 5 5 5 5 5 5 5 4 4 4 4 4 4 5 5 5 5 6 6 7 7 7 8 8 8 8 8 8 8 8 8 7 7 6 6 6 6 6 6 6 5 5 5 5 5 5 5 5 5 5 5 5 5
4 4 4 4 4 4 4 4 4 4 4 4 4 4 4 4 4 4 5 5 5 5 4 4 4 5 5 5 5 5 5 5 5 5 5 5 6 6 6 6 6 6 6 6 6 6 6 6 6 6 6 6 6 6 6 6 6 6 6 6 5 5 5 5 5 5 5 5 5 6 6 6 6 7 7 7 7 8 8 8 8 8 8 8 7 7 7 6 6 6 6 6 6 5 5 5 5 5 5 5 5 5 5
4 4 4 4 4 4 4 4 4 4 5 5 5 5 5 4 4 4 4 5 5 5 5 5 5 5 5 5 6 6 6 6 6 6 6 6 6 6 6 7 7 7 7 7 7 7 7 7 7 7 7 7 7 7 7 7 7 7 7 7 7 7 7 6 6 6 6 6 6 6 6 5 5 5 6 6 6 6 6 7 7 7 8 8 8 8 8 7 7 7 7 7 6 6 6 6 6 6 6 5 5 5 5
4 4 4 5 5 5 5 5 5 5 5 5 6 6 6 5 5 5 5 5 5 6 6 6 6 6 6 6 6 6 6 7 7 7 7 7 7 7 7 7 8 8 8 8 8 8 8 8 8 8 8 8 8 8 8 8 8 8 8 8 8 8 8 8 8 8 7 7 7 7 6 6 6 6 5 5 5 5 5 6 6 6 6 6 7 7 7 7 8 8 8 8 7 7 7 7 7 7 6 6 6 6 6
5 5 5 5 6 6 6 6 6 6 6 6 6 6 6 6 6 6 6 6 6 6 6 6 7 7 7 7 7 7 7 7 8 8 8 8 8 8 8 8 8 8 8 8 8 8 8 8 8 8 8 8 8 8 8 8 8 8 8 9 9 9 9 9 9 9 9 8 8 8 8 8 7 7 7 6 6 6 6 5 5 5 5 5 6 6 6 6 7 7 7 7 8 8 8 8 8 8 8 7 7 7 7
5 6 6 6 6 7 7 7 7 7 6 6 6 7 7 7 7 6 6 7 7 7 7 7 7 7 7 7 8 8 8 8 8 8 9 9 9 8 8 8 8 8 8 8 7 7 7 7 7 7 7 7 7 7 7 7 7 7 8 8 8 8 8 8 8 8 8 8 9 9 8 8 8 8 8 8 8 7 7 7 6 6 6 6 6 6 6 6 6 6 6 6 7 7 7 7 8 8 8 8 8 8 8
6 6 7 7 7 7 7 7 7 7 7 7 7 7 7 7 7 7 7 7 7 7 7 7 7 7 7 7 7 8 8 8 8 8 8 8 8 8 8 8 7 7 7 7 6 6 6 6 6 6 6 6 6 6 6 6 6 6 6 6 7 7 7 7 7 7 8 8 8 8 8 8 8 8 8 8 8 8 8 8 8 8 7 7 7 7 6 6 6 6 6 6 6 6 6 6 6 6 7 7 7 7 8
6 7 7 7 7 8 8 8 8 8 8 7 7 7 7 7 7 7 7 7 7 7 7 7 7 7 7 7 7 7 8 8 8 8 8 8 7 7 7 7 6 6 6 6 6 6 6 5 5 5 5 5 5 5 5 6 6 6 6 6 6 6 6 6 7 7 7 7 7 7 7 7 7 8 8 8 8 8 8 8 8 8 8 8 8 8 8 8 7 7 7 7 6 6 6 6 6 6 6 6 6 6 6
6 6 6 6 7 7 7 7 7 7 7 7 7 7 7 7 7 7 7 7 7 7 7 7 7 7 7 7 7 7 8 7 7 7 7 7 6 6 6 6 6 5 5 5 5 5 5 5 5 5 5 6 6 6 6 6 6 6 6 6 6 7 7 7 7 7 7 7 7 7 7 7 7 7 7 8 8 8 8 8 8 8 8 8 8 8 8 8 8 8 8 7 7 7 7 7 6 6 6 6 6 6 6
5 5 5 6 6 6 7 7 7 7 7 6 6 6 6 6 7 7 7 7 7 7 7 7 8 8 8 8 8 8 7 7 7 6 6 6 5 5 5 5 5 5 5 5 5 6 6 6 6 6 6 6 6 6 7 7 7 7 7 7 7 8 8 8 8 8 8 8 8 8 8 8 8 8 8 8 8 8 8 8 8 8 8 8 8 8 8 8 8 8 8 8 8 8 7 7 7 7 7 7 7 7 6
5 5 5 6 6 6 6 6 7 7 6 6 6 7 7 7 7 7 7 7 7 8 8 8 8 8 8 8 7 7 7 6 6 6 5 5 5 5 5 5 5 5 5 6 6 6 6 7 7 7 7 7 7 7 8 8 8 8 8 8 8 8 8 8 8 8 8 9 9 9 9 9 9 9 9 9 9 9 9 9 9 8 8 8 8 8 8 8 8 8 8 8 8 8 8 8 8 8 8 8 8 8 7
4 5 5 5 5 6 6 6 6 7 7 7 7 7 8 8 8 8 8 8 8 9 9 9 8 7 7 7 6 6 6 5 5 5 5 4 4 5 5 5 5 6 6 6 7 7 7 7 8 8 8 8 8 8 8 8 8 8 8 8 8 8 8 8 8 8 8 8 8 8 8 8 8 8 8 9 9 9 9 9 9 9 9 9 9 9 9 9 9 9 9 9 9 9 9 9 9 9 9 9 9 8 8
5 5 5 5 5 6 6 6 6 7 8 8 8 8 8 9 9 9 8 8 9 9 8 8 7 7 6 6 6 5 5 4 4 4 5 5 5 5 5 6 6 6 7 7 7 8 8 8 8 8 8 8 8 8 8 8 8 8 8 8 8 7 7 7 7 7 7 7 7 7 7 7 7 7 7 7 7 7 8 8 8 8 8 8 8 9 9 9 9 9 9 9 9 9 9 9 9 9 9 9 9 9 9
5 5 5 5 5 6 6 6 7 8 9 9 9 9 9 9 9 9 9 9 8 8 7 7 6 6 6 6 5 5 5 4 4 5 5 5 5 6 6 6 7 7 7 8 8 8 8 8 8 8 8 8 8 8 8 8 8 8 7 7 7 7 7 6 6 6 6 6 6 6 6 6 6 6 6 6 6 6 6 6 6 6 7 7 7 7 7 7 7 8 8 8 8 8 8 8 8 9 9 9 9 9 9
6 6 6 6 6 6 7 7 8 9 10 9 10 10 10 9 9 9 9 8 8 7 6 6 6 5 5 5 5 5 5 5 6 6 6 6 6 7 7 7 7 8 8 8 8 8 8 8 8 8 8 8 8 8 7 7 7 7 7 7 7 6 6 6 6 6 6 6 6 6 6 5 5 5 5 6 6 6 6 6 6 6 6 6 6 6 6 6 6 6 6 6 6 7 7 7 7 7 7 7 8 8 8
6 6 7 7 8 8 8 8 9 10 10 9 10 10 11 10 8 8 8 8 7 7 6 6 6 5 5 6 6 6 6 6 7 7 8 8 8 8 8 8 8 8 8 8 7 7 7 7 7 7 7 7 7 7 7 7 7 6 6 6 6 6 6 6 6 6 6 6 6 6 6 6 6 6 6 6 6 6 6 6 6 6 6 6 6 6 6 6 6 6 6 6 6 6 6 6 6 6 6 6 6 6 6
7 7 8 8 9 9 9 10 10 11 10 10 9 10 10 10 9 7 7 7 6 6 6 6 6 6 6 6 7 7 8 8 8 9 10 10 10 9 9 9 8 8 8 8 7 7 7 6 6 6 6 6 6 6 6 6 6 6 6 6 6 6 6 6 6 6 6 6 6 6 6 6 6 6 6 6 6 6 6 6 6 6 6 6 6 6 6 6 6 6 6 6 6 6 6 6 6 6 6 6 6 6 6
8 8 8 8 9 10 10 10 10 11 10 9 9 9 8 8 8 7 6 5 5 6 6 6 6 6 7 7 8 9 9 9 9 10 10 10 10 10 9 9 9 8 8 8 7 7 7 6 6 6 6 6 6 6 6 6 6 6 6 6 6 6 6 6 6 6 7 7 7 7 7 7 7 7 7 7 7 7 6 6 6 6 6 6 6 6 6 6 6 6 6 6 6 6 6 6 6 6 6 6 6 6 6
8 8 8 9 10 10 10 10 10 10 10 9 9 8 8 7 6 6 5 5 5 5 5 5 6 7 7 8 9 10 9 9 9 9 10 9 9 9 9 9 9 8 8 8 8 7 7 7 7 6 6 6 6 6 6 6 6 6 6 6 6 6 6 6 7 7 7 7 7 7 7 7 7 7 7 7 7 7 7 7 7 7 7 6 6 6 6 6 6 6 6 6 6 6 6 6 6 6 6 6 6 6 7
8 8 9 10 10 10 9 10 10 10 9 9 8 7 6 6 5 4 4 5 5 5 6 6 7 8 8 8 8 9 8 7 7 7 8 8 8 8 9 9 9 9 9 8 8 8 8 7 7 7 7 7 7 7 6 6 6 6 6 6 6 6 6 6 7 7 7 7 7 7 7 7 7 7 7 7 7 7 7 7 7 7 7 7 6 6 6 6 6 6 6 6 6 6 6 6 7 7 7 7 7 7 7
8 8 9 10 10 9 9 10 10 8 8 7 7 6 5 4 4 5 5 6 6 7 9 9 9 8 8 7 7 7 6 6 6 6 6 7 7 8 8 8 8 8 8 8 9 9 8 8 8 8 8 8 8 7 7 7 7 7 7 7 7 6 7 7 7 7 7 7 7 7 7 7 7 7 7 7 7 7 7 7 7 7 7 7 7 7 7 7 7 7 7 7 7 7 7 7 7 7 7 7 7 7 7
8 8 9 9 9 9 10 9 8 7 7 6 6 5 4 4 5 6 7 8 8 9 10 10 9 8 8 7 6 6 6 5 5 5 5 6 6 6 7 7 7 8 7 8 8 8 8 8 8 8 8 8 8 8 7 7 7 7 7 7 7 7 7 7 7 7 7 7 7 7 7 7 7 7 7 7 7 7 7 7 7 7 7 7 7 7 7 7 7 7 7 7 7 7 7 7 8 8 8 8 8 8 8
8 8 9 9 9 8 9 8 7 6 6 6 6 6 6 6 7 8 9 10 10 10 10 9 8 7 7 6 6 6 6 6 5 5 5 5 5 6 5 6 6 7 6 7 7 7 7 7 7 7 7 7 7 7 7 7 7 7 7 7 7 7 7 7 7 7 7 7 7 7 7 7 7 7 7 7 7 7 7 7 7 7 7 7 7 7 8 8 8 8 8 8 8 8 8 8 8 8 8 8 8 8 8
8 9 9 9 8 8 7 7 7 6 6 6 6 7 8 9 10 10 11 11 10 10 9 8 7 6 6 6 6 6 6 6 6 5 5 5 5 5 4 5 6 6 5 6 6 6 6 6 6 6 6 6 6 6 6 6 6 7 6 7 7 7 7 7 7 7 6 7 7 7 7 7 7 7 7 7 7 8 8 8 8 8 8 8 8 8 8 8 8 8 8 8 8 8 8 8 8 8 8 8 8 8 8
8 8 9 8 8 7 7 6 6 6 7 7 8 9 10 11 11 11 10 10 9 8 8 7 6 6 6 6 6 6 6 5 5 5 5 5 5 5 4 5 5 4 4 5 5 5 5 6 6 6 6 6 6 6 6 6 6 6 6 6 6 6 6 6 6 6 6 6 6 7 7 7 7 7 7 7 8 8 8 8 8 8 8 8 8 8 8 8 8 8 8 8 8 8 8 8 8 8 8 8 8 8 8
8 8 8 7 7 7 6 6 6 7 8 9 10 10 11 10 10 9 8 8 8 7 7 7 6 6 6 6 6 6 6 5 5 5 5 5 5 4 4 4 4 4 4 4 4 4 4 5 5 5 5 5 5 6 6 6 6 6 6 6 6 6 6 6 6 6 6 6 6 6 7 7 7 7 7 7 7 8 8 8 8 8 8 8 8 8 8 8 8 8 8 8 8 8 8 8 8 8 8 8 8 8 8
9 8 7 7 6 6 6 7 8 8 9 10 10 10 10 9 8 7 6 6 6 6 7 7 6 6 6 6 6 6 6 6 5 5 5 5 5 5 5 5 5 5 5 5 4 4 4 5 5 5 6 5 6 6 6 6 6 6 6 6 6 6 6 6 6 6 7 6 6 6 6 7 7 7 7 7 7 7 7 7 7 7 7 7 7 8 8 8 8 8 8 8 8 8 8 8 8 8 8 8 8 8 8
9 8 7 6 6 6 7 8 9 9 10 10 9 8 8 8 7 7 6 6 6 6 6 7 7 7 6 6 6 6 6 6 6 6 6 6 6 6 6 6 6 6 6 6 5 5 5 5 5 6 6 6 6 6 6 6 6 6 6 6 6 6 6 7 7 7 7 7 7 7 7 7 7 7 7 7 7 7 7 7 7 7 7 7 7 7 7 7 7 7 7 8 8 8 8 8 8 8 8 8 8 8 8
9 8 7 7 6 7 8 9 9 9 9 8 8 7 7 7 7 7 7 7 6 6 6 7 8 8 7 7 7 7 7 7 7 7 7 6 6 6 6 7 7 7 8 7 7 6 6 6 6 6 6 7 7 7 7 7 7 7 7 7 7 7 7 7 7 7 7 7 7 7 7 7 7 7 7 7 7 7 7 7 7 7 7 7 7 7 7 7 7 7 7 7 7 7 7 7 7 7 7 7 7 7 7
9 8 7 7 7 8 9 9 9 9 8 7 7 7 7 7 7 8 8 8 8 7 7 7 8 9 9 8 8 8 8 8 8 7 7 7 7 7 7 7 7 8 8 8 8 8 8 7 7 7 7 7 7 8 7 7 7 7 7 7 7 7 7 7 7 8 8 8 8 8 8 8 8 7 7 7 8 8 8 8 8 8 8 8 7 7 7 7 7 7 7 7 7 7 7 7 7 7 7 7 7 7 7
9 8 8 8 8 8 9 9 8 8 7 7 7 7 7 7 7 8 8 8 9 8 8 8 8 9 9 9 9 9 9 9 9 8 8 8 8 7 7 7 7 7 7 8 9 9 9 9 9 8 8 8 8 8 8 8 8 8 8 8 8 8 8 8 8 8 8 8 8 8 8 8 8 8 8 8 8 8 8 8 8 8 8 8 8 7 7 7 7 7 7 6 6 6 6 6 6 6 6 6 6 6 7
8 8 8 8 8 8 8 8 8 7 7 7 7 7 7 7 7 7 7 7 8 8 8 8 9 9 9 9 9 9 10 10 10 9 9 9 9 8 8 8 7 7 7 8 9 9 10 10 10 9 9 9 9 9 8 9 9 8 8 9 9 9 9 9 8 8 8 9 9 9 9 9 9 9 8 8 8 8 8 8 8 8 8 8 8 7 7 7 7 7 6 6 6 6 6 6 6 6 6 7 7 7 7
7 7 8 8 8 8 8 7 7 7 7 7 7 7 6 6 6 6 6 6 7 7 8 8 8 9 9 10 10 10 10 10 10 10 10 10 10 10 9 9 9 9 8 8 8 9 9 10 10 10 10 10 10 10 10 10 9 9 10 10 10 9 9 9 9 9 9 9 9 9 9 9 9 9 9 8 8 8 8 8 7 7 7 7 7 7 7 7 7 7 6 6 6 6 6 6 6 6 6 7 7 7 7
7 7 8 8 8 8 7 7 7 7 7 6 6 5 5 5 5 5 5 6 6 6 7 8 8 8 9 10 10 11 11 11 11 11 11 10 10 10 11 10 10 10 10 10 9 8 8 9 9 10 10 10 10 10 10 10 10 10 10 10 10 10 10 10 10 10 10 10 10 9 9 9 9 9 9 8 8 8 8 7 7 7 6 6 6 6 6 6 6 6 7 7 6 6 6 6 6 6 6 7 7 7 7
8 8 8 8 7 7 7 7 6 6 6 5 4 4 4 4 4 4 5 5 6 6 6 7 7 8 8 9 10 11 12 12 12 11 11 10 11 11 12 12 12 12 11 11 10 10 9 9 9 9 10 10 10 10 11 10 10 10 11 10 10 10 10 10 10 10 10 10 10 10 10 9 9 9 8 8 8 8 7 7 7 7 6 6 6 6 6 6 6 6 6 6 7 7 7 7 7 7 7 7 7 7 7
7 8 8 7 7 7 6 6 5 4 4 4 4 4 3 3 3 4 4 4 5 5 6 6 7 7 8 8 9 10 11 12 12 11 11 11 11 11 11 11 11 11 12 12 12 12 12 11 10 10 10 10 9 9 10 9 9 9 9 9 9 9 9 10 10 10 10 10 10 10 9 9 9 8 8 8 8 8 7 7 7 7 7 7 7 6 6 6 6 6 6 7 7 7 7 7 7 7 7 7 7 7 7
7 7 7 7 6 6 5 4 4 3 3 3 3 3 3 2 2 2 3 3 4 4 5 5 6 7 8 8 9 9 10 11 11 11 12 12 12 11 11 11 10 10 11 13 13 13 13 13 12 11 11 10 10 9 9 8 7 6 6 7 7 8 8 9 9 9 9 9 9 8 8 8 8 8 8 8 8 7 7 7 7 7 7 7 7 7 7 7 7 7 7 7 7 7 7 7 7 7 7 7 7 7 7
8 7 6 6 5 5 4 3 3 2 2 2 2 2 2 1 2 2 2 2 3 3 4 5 5 6 7 8 8 9 10 11 11 12 12 12 11 11 12 11 11 10 10 10 11 12 12 12 13 13 13 12 12 11 10 8 7 6 6 6 6 7 7 7 7 7 6 6 6 6 7 7 7 7 7 7 7 7 7 7 7 7 7 7 7 7 7 7 7 7 7 7 7 7 7 7 7 7 7 7 7 8 8
7 7 6 5 4 4 3 2 2 2 1 1 1 1 1 1 1 1 1 2 2 2 3 4 4 5 5 6 8 9 10 10 11 12 12 11 10 10 10 11 12 12 11 9 9 11 13 13 14 15 14 14 13 12 11 10 9 9 8 8 7 7 6 6 5 5 4 4 4 4 5 5 6 6 6 6 6 6 6 6 6 7 7 7 7 7 8 8 8 8 8 8 8 8 8 8 8 8 8 8 8 8 8
6 6 5 4 4 3 2 2 2 1 1 1 1 1 1 1 1 1 1 1 1 2 1 2 3 3 4 5 6 7 8 9 10 11 12 11 11 10 10 10 10 11 13 12 11 11 14 15 15 14 14 13 12 11 11 10 10 10 10 9 8 7 6 6 5 5 4 4 4 3 3 4 4 4 5 5 6 6 6 6 6 7 7 7 7 8 8 8 8 8 9 9 9 9 9 9 9 9 9 9 9 9 9
6 5 4 4 3 2 1 1 1 1 1 1 1 1 1 1 1 1 1 1 1 1 1 1 2 2 3 3 4 5 6 7 8 10 11 11 11 11 11 9 8 8 10 11 11 11 9 9 9 9 9 9 9 9 10 10 10 10 10 10 9 8 8 7 6 5 4 4 4 3 2 2 2 3 3 4 5 5 6 6 6 7 7 7 8 8 8 9 9 9 10 10 10 10 11 11 11 11 11 11 11 10 10
5 4 3 3 2 2 1 1 1 1 1 0 0 0 1 1 1 1 1 1 1 1 1 1 1 1 2 3 3 3 4 6 7 8 9 10 10 10 10 11 10 9 8 8 9 10 10 9 8 8 7 8 9 9 9 9 9 9 10 9 9 9 8 7 6 5 4 4 3 3 2 2 2 2 2 3 4 5 5 6 6 7 7 7 8 8 8 9 9 10 10 10 11 11 11 12 12 12 12 12 12 12 12
4 3 2 2 2 1 1 1 1 1 1 0 0 0 0 1 1 1 1 1 1 1 1 1 1 1 1 2 2 3 3 4 6 7 8 9 9 9 10 10 11 11 11 9 8 8 10 10 10 10 9 9 10 9 8 8 8 8 7 8 8 7 7 7 6 5 5 4 4 3 3 3 3 3 3 4 4 5 5 6 6 6 7 7 7 8 8 8 8 9 9 10 10 10 11 11 12 12 12 12 12 12 12
3 2 2 2 2 1 1 1 1 1 1 0 0 0 0 1 1 1 1 1 0 0 0 1 1 1 1 1 1 2 2 3 4 6 7 8 9 9 9 7 8 9 10 11 11 10 10 9 10 10 9 8 8 8 8 7 7 7 7 6 6 6 6 6 6 6 5 5 4 4 4 4 4 4 4 5 5 6 6 6 6 6 7 7 7 7 8 8 8 8 8 9 9 9 10 10 10 11 11 11 11 11 11
3 3 2 2 2 2 1 1 1 1 1 1 0 0 0 1 1 1 1 1 1 1 1 1 1 2 2 1 1 1 2 2 4 5 6 7 8 9 9 8 8 7 6 8 10 11 11 10 10 10 10 7 7 7 8 8 7 7 6 5 5 5 4 5 5 5 5 5 5 5 5 5 5 6 6 6 7 7 7 8 8 8 8 8 8 8 8 8 9 9 9 9 9 9 9 9 9 10 10 10 10 10 11
3 3 3 2 2 2 2 2 1 1 1 1 0 0 0 1 1 1 1 1 2 2 2 1 1 2 2 2 2 2 1 2 3 4 6 7 8 8 10 10 10 9 8 8 8 9 10 10 10 11 11 10 8 6 6 6 6 5 5 4 4 4 4 4 4 4 4 4 5 5 6 6 6 7 8 8 8 9 9 9 9 9 9 9 9 9 9 9 9 9 9 9 9 9 9 9 9 9 9 9 10 10 10
3 3 3 3 3 2 2 2 2 2 1 1 1 1 0 1 1 1 1 1 2 2 2 2 2 2 2 2 2 2 2 2 2 3 5 6 8 8 9 10 10 10 9 9 9 9 9 10 10 10 10 11 10 8 5 4 4 4 4 4 4 4 3 3 3 4 4 4 5 6 6 7 8 9 10 10 10 11 11 10 10 10 10 10 10 9 9 9 8 8 8 8 8 8 8 9 9 9 9 9 9 9 9
4 3 3 3 3 3 2 2 2 2 1 1 1 1 1 1 1 2 2 2 2 2 1 2 2 2 2 1 1 1 2 2 2 3 4 6 7 8 9 9 9 9 9 9 9 9 9 9 9 9 8 9 10 10 8 5 4 3 3 3 3 3 3 3 4 4 4 5 6 6 8 8 9 10 11 11 12 12 12 12 11 11 11 11 10 10 10 9 9 8 8 8 8 8 8 8 8 8 9 9 9 9 9
Height
3170 3170 3170 3170 3170 3170 3170 3169 3169 3169 3169 3169 3169 3169 3168 3168 3168 3168 3167 3167 3167 3167 3167 3166 3166 3166 3166 3165 3165 3165 3165 3165 3164 3164 3164 3164 3164 3164 3164 3164 3164 3163 3163 3163 3163 3163 3163 3163 3163 3162 3162 3162 3162 3162 3162 3162 3162 3162 3162 3161 3161 3161 3161 3161 3161 3161 3161 3161 3161 3161 3161 3161 3161 3161 3161 3161 3161 3161 3161 3161 3161 3161 3161 3161 3161 3161 3161 3161 3161 3161 3161 3161 3161 3161 3162 3162 3162 3162 3162 3162 3162 3162 3162
3170 3170 3170 3170 3170 3169 3169 3169 3169 3169 3169 3169 3168 3168 3168 3168 3168 3167 3167 3167 3167 3167 3166 3166 3166 3166 3165 3165 3165 3165 3165 3164 3164 3164 3164 3164 3164 3163 3163 3163 3163 3163 3163 3163 3162 3162 3162 3162 3162 3162 3162 3162 3162 3162 3161 3161 3161 3161 3161 3161 3161 3160 3160 3160 3160 3160 3160 3160 3160 3160 3160 3160 3160 3160 3160 3160 3160 3160 3160 3160 3160 3160 3160 3160 3160 3160 3160 3160 3160 3160 3160 3160 3161 3161 3161 3161 3161 3161 3161 3161 3161 3161 3161
3170 3169 3169 3169 3169 3169 3169 3169 3169 3169 3169 3168 3168 3168 3168 3168 3167 3167 3167 3167 3167 3166 3166 3166 3166 3165 3165 3165 3165 3164 3164 3164 3164 3164 3163 3163 3163 3163 3163 3163 3163 3162 3162 3162 3162 3162 3162 3162 3162 3161 3161 3161 3161 3161 3161 3161 3160 3160 3160 3160 3160 3160 3160 3160 3159 3159 3159 3159 3159 3159 3159 3159 3159 3159 3159 3159 3159 3159 3159 3159 3159 3159 3159 3159 3159 3159 3159 3159 3159 3160 3160 3160 3160 3160 3160 3160 3160 3160 3160 3160 3160 3160 3160
3169 3169 3169 3169 3169 3169 3169 3169 3169 3169 3168 3168 3168 3168 3168 3167 3167 3167 3167 3167 3166 3166 3166 3165 3165 3165 3165 3164 3164 3164 3164 3164 3163 3163 3163 3163 3163 3163 3162 3162 3162 3162 3162 3162 3162 3161 3161 3161 3161 3161 3160 3160 3160 3160 3160 3160 3160 3160 3159 3159 3159 3159 3159 3159 3159 3159 3158 3158 3158 3158 3158 3158 3158 3158 3158 3158 3159 3159 3158 3158 3158 3158 3158 3158 3158 3158 3158 3159 3159 3159 3159 3159 3159 3159 3159 3159 3159 3159 3159 3159 3159 3159 3159
3169 3169 3169 3169 3169 3169 3169 3169 3169 3168 3168 3168 3168 3167 3167 3167 3167 3167 3167 3166 3166 3166 3165 3165 3165 3165 3164 3164 3164 3164 3163 3163 3163 3163 3163 3162 3162 3162 3162 3162 3162 3162 3161 3161 3161 3161 3161 3160 3160 3160 3160 3159 3159 3159 3159 3159 3159 3159 3159 3159 3158 3158 3158 3158 3158 3158 3158 3158 3158 3158 3157 3157 3157 3157 3157 3157 3157 3157 3157 3158 3158 3158 3158 3158 3158 3158 3158 3158 3158 3158 3158 3158 3158 3158 3158 3158 3158 3158 3158 3158 3158 3158 3158
3169 3169 3169 3169 3169 3169 3169 3168 3168 3168 3168 3168 3167 3167 3167 3167 3167 3167 3166 3166 3166 3165 3165 3165 3165 3164 3164 3164 3163 3163 3163 3163 3162 3162 3162 3162 3162 3162 3162 3161 3161 3161 3161 3160 3160 3160 3160 3160 3159 3159 3159 3159 3159 3158 3158 3158 3158 3158 3158 3158 3158 3157 3157 3157 3157 3157 3157 3157 3157 3157 3157 3157 3157 3157 3157 3157 3157 3157 3157 3157 3157 3157 3157 3157 3157 3157 3157 3157 3157 3157 3157 3157 3157 3157 3157 3157 3157 3157 3157 3157 3157 3157 3157
3168 3168 3168 3168 3168 3168 3168 3168 3168 3168 3168 3167 3167 3167 3167 3167 3167 3166 3166 3166 3165 3165 3165 3165 3164 3164 3164 3163 3163 3163 3162 3162 3162 3162 3162 3162 3161 3161 3161 3161 3160 3160 3160 3160 3159 3159 3159 3159 3159 3158 3158 3158 3158 3158 3157 3157 3157 3157 3157 3157 3157 3157 3157 3157 3156 3156 3156 3156 3156 3156 3156 3156 3156 3156 3156 3156 3156 3156 3156 3156 3156 3156 3156 3156 3156 3156 3156 3156 3156 3156 3156 3156 3156 3156 3156 3157 3157 3157 3157 3157 3157 3157 3157
3168 3168 3168 3168 3168 3168 3168 3168 3168 3167 3167 3167 3167 3167 3167 3166 3166 3166 3166 3165 3165 3165 3165 3164 3164 3164 3164 3163 3163 3162 3162 3162 3162 3162 3161 3161 3161 3160 3160 3160 3160 3160 3159 3159 3159 3158 3158 3158 3158 3158 3157 3157 3157 3157 3157 3157 3157 3156 3156 3156 3156 3156 3156 3156 3156 3155 3155 3155 3155 3155 3155 3155 3155 3155 3155 3155 3155 3155 3155 3155 3155 3155 3155 3155 3155 3155 3155 3155 3155 3155 3155 3156 3156 3156 3156 3156 3156 3156 3156 3156 3156 3156 3156
3168 3168 3168 3168 3168 3168 3168 3167 3167 3167 3167 3167 3167 3167 3166 3166 3166 3166 3165 3165 3165 3165 3164 3164 3164 3164 3163 3163 3163 3162 3162 3162 3161 3161 3161 3160 3160 3160 3159 3159 3159 3159 3159 3158 3158 3158 3157 3157 3157 3157 3157 3157 3157 3156 3156 3156 3156 3156 3156 3155 3155 3155 3155 3155 3155 3154 3154 3154 3154 3154 3154 3154 3154 3154 3154 3154 3154 3154 3154 3154 3154 3154 3154 3154 3154 3154 3154 3154 3154 3154 3154 3154 3154 3155 3155 3155 3155 3155 3155 3155 3155 3155 3155
3168 3168 3168 3168 3168 3167 3167 3167 3167 3167 3167 3167 3166 3166 3166 3166 3165 3165 3165 3165 3164 3164 3164 3164 3163 3163 3163 3163 3162 3162 3162 3161 3161 3160 3160 3160 3159 3159 3159 3159 3158 3158 3158 3158 3157 3157 3157 3157 3157 3156 3156 3156 3156 3156 3155 3155 3155 3155 3155 3155 3154 3154 3154 3154 3154 3153 3153 3153 3153 3153 3153 3153 3153 3153 3153 3153 3153 3153 3153 3153 3153 3153 3153 3153 3153 3153 3153 3153 3153 3153 3153 3153 3153 3153 3153 3153 3153 3153 3153 3154 3154 3154 3154
3168 3168 3168 3167 3167 3167 3167 3167 3167 3167 3167 3166 3166 3166 3166 3165 3165 3165 3164 3164 3164 3164 3163 3163 3163 3163 3162 3162 3162 3161 3161 3161 3160 3160 3160 3159 3159 3158 3158 3158 3158 3157 3157 3157 3157 3157 3156 3156 3156 3156 3156 3155 3155 3155 3155 3154 3154 3154 3154 3154 3153 3153 3153 3153 3153 3152 3152 3152 3152 3152 3152 3152 3152 3152 3152 3152 3152 3152 3152 3152 3152 3152 3152 3152 3152 3152 3152 3152 3152 3152 3152 3152 3152 3152 3152 3152 3152 3152 3152 3152 3152 3152 3152
3167 3167 3167 3167 3167 3167 3167 3167 3167 3166 3166 3166 3166 3165 3165 3165 3164 3164 3164 3164 3163 3163 3163 3163 3162 3162 3162 3162 3161 3161 3160 3160 3160 3159 3159 3159 3158 3158 3158 3157 3157 3157 3157 3157 3156 3156 3156 3156 3155 3155 3155 3155 3154 3154 3154 3154 3154 3153 3153 3153 3153 3152 3152 3152 3152 3152 3152 3152 3152 3152 3152 3151 3151 3151 3151 3151 3151 3151 3151 3151 3151 3151 3151 3151 3151 3151 3151 3151 3151 3151 3151 3151 3151 3151 3151 3151 3151 3151 3151 3151 3151 3151 3151
3167 3167 3167 3167 3167 3167 3167 3166 3166 3166 3166 3165 3165 3165 3164 3164 3164 3164 3164 3163 3163 3163 3162 3162 3162 3162 3161 3161 3160 3160 3160 3159 3159 3159 3158 3158 3158 3158 3157 3157 3157 3157 3156 3156 3156 3156 3155 3155 3155 3154 3154 3154 3154 3153 3153 3153 3153 3153 3152 3152 3152 3152 3152 3151 3151 3151 3151 3151 3151 3151 3151 3150 3150 3150 3150 3150 3150 3150 3150 3150 3150 3150 3150 3150 3150 3150 3150 3150 3150 3150 3150 3150 3150 3150 3150 3150 3150 3150 3150 3150 3150 3150 3150
3167 3167 3167 3166 3166 3166 3166 3166 3166 3166 3165 3165 3165 3164 3164 3164 3163 3163 3163 3163 3162 3162 3162 3162 3161 3161 3161 3160 3160 3159 3159 3159 3158 3158 3158 3158 3157 3157 3157 3157 3156 3156 3156 3155 3155 3155 3155 3154 3154 3154 3153 3153 3153 3153 3152 3152 3152 3152 3152 3152 3151 3151 3151 3151 3150 3150 3150 3150 3150 3150 3150 3150 3149 3149 3149 3149 3149 3149 3149 3149 3149 3149 3149 3149 3149 3149 3149 3149 3149 3149 3149 3149 3149 3149 3149 3149 3148 3148 3148 3148 3148 3148 3148
3166 3166 3166 3166 3166 3166 3165 3165 3165 3165 3165 3164 3164 3164 3163 3163 3163 3162 3162 3162 3162 3162 3161 3161 3161 3160 3160 3159 3159 3159 3158 3158 3158 3158 3157 3157 3157 3157 3156 3156 3156 3155 3155 3155 3154 3154 3154 3154 3153 3153 3152 3152 3152 3152 3152 3152 3151 3151 3151 3151 3150 3150 3150 3150 3150 3149 3149 3149 3149 3149 3149 3149 3148 3148 3148 3148 3148 3148 3148 3148 3148 3148 3148 3147 3147 3147 3147 3147 3147 3147 3147 3147 3147 3147 3147 3147 3147 3147 3147 3147 3147 3147 3147
3166 3165 3165 3165 3165 3165 3165 3164 3164 3164 3164 3164 3164 3163 3163 3162 3162 3162 3162 3161 3161 3161 3161 3160 3160 3159 3159 3159 3158 3158 3158 3158 3157 3157 3157 3157 3156 3156 3156 3155 3155 3155 3154 3154 3154 3153 3153 3153 3152 3152 3152 3152 3151 3151 3151 3151 3151 3150 3150 3150 3149 3149 3149 3149 3149 3148 3148 3148 3148 3148 3148 3147 3147 3147 3147 3147 3147 3147 3147 3147 3147 3147 3146 3146 3146 3146 3146 3146 3146 3146 3146 3146 3146 3146 3146 3146 3146 3146 3146 3146 3146 3146 3146
3165 3165 3165 3165 3164 3164 3164 3164 3164 3163 3163 3163 3163 3163 3162 3162 3162 3161 3161 3161 3160 3160 3160 3160 3159 3159 3158 3158 3158 3158 3157 3157 3157 3157 3156 3156 3156 3155 3155 3154 3154 3154 3154 3153 3153 3153 3152 3152 3152 3151 3151 3151 3150 3150 3150 3150 3150 3149 3149 3149 3149 3148 3148 3148 3147 3147 3147 3147 3147 3147 3147 3147 3146 3146 3146 3146 3146 3145 3145 3145 3145 3145 3145 3145 3145 3145 3145 3145 3145 3145 3145 3145 3145 3145 3145 3144 3144 3144 3144 3144 3144 3144 3144
3164 3164 3164 3164 3164 3164 3163 3163 3163 3163 3162 3162 3162 3162 3162 3161 3161 3160 3160 3160 3160 3159 3159 3159 3159 3158 3158 3158 3157 3157 3157 3156 3156 3156 3156 3155 3155 3155 3154 3154 3153 3153 3153 3152 3152 3152 3152 3151 3151 3151 3150 3150 3150 3149 3149 3149 3149 3148 3148 3148 3148 3147 3147 3147 3147 3147 3146 3146 3146 3146 3145 3145 3145 3145 3145 3144 3144 3144 3144 3144 3144 3144 3143 3143 3143 3143 3143 3143 3143 3143 3143 3143 3143 3143 3143 3143 3143 3143 3143 3143 3143 3142 3142
3164 3163 3163 3163 3163 3163 3163 3162 3162 3162 3162 3161 3161 3161 3161 3161 3160 3160 3159 3159 3159 3159 3158 3158 3158 3157 3157 3157 3157 3156 3156 3156 3155 3155 3155 3154 3154 3154 3154 3153 3153 3152 3152 3152 3152 3151 3151 3150 3150 3150 3149 3149 3149 3148 3148 3148 3148 3148 3147 3147 3147 3147 3146 3146 3146 3146 3145 3145 3145 3144 3144 3144 3144 3144 3143 3143 3143 3143 3142 3142 3142 3142 3142 3142 3142 3142 3142 3142 3142 3142 3142 3142 3142 3142 3142 3142 3141 3141 3141 3141 3141 3141 3141
3163 3163 3163 3162 3162 3162 3162 3162 3162 3161 3161 3161 3160 3160 3160 3160 3159 3159 3159 3159 3158 3158 3158 3157 3157 3157 3157 3156 3156 3156 3155 3155 3154 3154 3154 3153 3153 3153 3153 3152 3152 3152 3151 3151 3151 3150 3150 3150 3149 3149 3148 3148 3148 3148 3147 3147 3147 3147 3147 3146 3146 3146 3146 3145 3145 3145 3144 3144 3144 3143 3143 3143 3143 3142 3142 3142 3142 3142 3141 3141 3141 3141 3141 3140 3140 3140 3140 3140 3140 3140 3140 3140 3140 3140 3140 3140 3140 3140 3139 3139 3139 3139 3139
3162 3162 3162 3162 3162 3162 3162 3161 3161 3161 3160 3160 3160 3159 3159 3159 3159 3158 3158 3158 3158 3157 3157 3157 3156 3156 3156 3155 3155 3155 3154 3154 3154 3153 3153 3153 3152 3152 3152 3152 3151 3151 3151 3150 3150 3150 3149 3149 3148 3148 3148 3147 3147 3147 3147 3147 3146 3146 3146 3146 3145 3145 3145 3144 3144 3144 3143 3143 3143 3142 3142 3142 3142 3142 3141 3141 3141 3140 3140 3140 3139 3139 3139 3139 3139 3139 3138 3138 3138 3138 3138 3138 3138 3138 3138 3138 3138 3138 3138 3137 3137 3137 3137
3162 3162 3162 3162 3161 3161 3160 3160 3160 3160 3159 3159 3159 3158 3158 3158 3158 3158 3157 3157 3157 3156 3156 3156 3155 3155 3155 3154 3154 3154 3153 3153 3153 3152 3152 3152 3152 3152 3151 3151 3151 3150 3150 3150 3149 3149 3149 3148 3148 3147 3147 3147 3147 3146 3146 3146 3145 3145 3145 3144 3144 3144 3144 3143 3143 3143 3142 3142 3142 3142 3141 3141 3141 3140 3140 3140 3140 3139 3139 3139 3138 3138 3138 3137 3137 3137 3137 3137 3137 3137 3137 3136 3136 3136 3136 3136 3136 3136 3136 3135 3135 3136 3136
3161 3162 3162 3161 3161 3160 3160 3159 3159 3159 3159 3158 3158 3158 3157 3157 3157 3157 3157 3156 3156 3155 3155 3155 3154 3154 3154 3154 3153 3153 3153 3152 3152 3152 3152 3151 3151 3151 3150 3150 3150 3149 3149 3149 3148 3148 3148 3147 3147 3147 3146 3146 3146 3145 3145 3145 3144 3144 3144 3143 3143 3143 3142 3142 3142 3142 3141 3141 3141 3141 3140 3140 3140 3139 3139 3139 3139 3138 3138 3137 3137 3137 3137 3136 3136 3136 3136 3135 3135 3135 3135 3135 3135 3134 3134 3134 3134 3134 3134 3134 3134 3133 3133
3161 3161 3161 3160 3160 3160 3159 3159 3158 3158 3158 3158 3157 3157 3157 3157 3156 3156 3156 3155 3155 3155 3154 3154 3154 3153 3153 3153 3152 3152 3152 3152 3152 3151 3151 3151 3150 3150 3149 3149 3149 3149 3148 3148 3147 3147 3147 3147 3146 3146 3145 3145 3145 3144 3144 3144 3143 3143 3142 3142 3142 3142 3141 3141 3141 3140 3140 3140 3139 3139 3139 3139 3138 3138 3138 3138 3137 3137 3137 3137 3136 3136 3136 3135 3135 3135 3134 3134 3134 3134 3133 3133 3133 3133 3132 3132 3132 3132 3132 3132 3132 3132 3132
3161 3160 3160 3160 3159 3159 3159 3158 3158 3158 3157 3157 3157 3157 3156 3156 3156 3155 3155 3155 3154 3154 3154 3153 3153 3153 3152 3152 3152 3152 3152 3151 3151 3151 3150 3150 3149 3149 3149 3148 3148 3147 3147 3147 3147 3146 3146 3146 3145 3145 3144 3144 3143 3143 3143 3142 3142 3142 3141 3141 3141 3140 3140 3140 3139 3139 3139 3138 3138 3138 3138 3137 3137 3137 3137 3136 3136 3136 3136 3135 3135 3135 3134 3134 3134 3133 3133 3133 3133 3132 3132 3132 3132 3131 3131 3131 3131 3131 3130 3130 3130 3130 3130
3160 3160 3159 3159 3159 3158 3158 3158 3158 3157 3157 3157 3157 3156 3156 3156 3155 3155 3154 3154 3154 3153 3153 3153 3152 3152 3152 3152 3151 3151 3151 3151 3150 3150 3150 3149 3149 3148 3148 3147 3147 3147 3146 3146 3146 3145 3145 3145 3144 3144 3143 3143 3142 3142 3142 3142 3141 3141 3140 3140 3140 3139 3139 3138 3138 3138 3137 3137 3137 3137 3136 3136 3136 3136 3135 3135 3135 3134 3134 3134 3134 3133 3133 3133 3132 3132 3132 3132 3132 3131 3131 3131 3130 3130 3129 3129 3129 3129 3129 3128 3128 3128 3128
3160 3159 3159 3159 3158 3158 3158 3157 3157 3157 3157 3156 3156 3156 3155 3155 3155 3154 3154 3154 3153 3153 3153 3152 3152 3152 3152 3151 3151 3151 3150 3150 3150 3149 3149 3148 3148 3148 3147 3147 3146 3146 3146 3145 3145 3144 3144 3144 3143 3143 3142 3142 3142 3141 3141 3141 3140 3140 3139 3139 3138 3138 3138 3137 3137 3137 3136 3136 3136 3135 3135 3135 3134 3134 3134 3133 3133 3133 3133 3132 3132 3132 3132 3131 3131 3131 3131 3130 3130 3130 3129 3129 3129 3128 3128 3128 3127 3127 3127 3127 3126 3126 3126
3159 3159 3158 3158 3158 3158 3157 3157 3157 3157 3156 3156 3155 3155 3155 3155 3154 3154 3154 3153 3153 3153 3152 3152 3152 3152 3151 3151 3150 3150 3150 3149 3149 3148 3148 3148 3147 3147 3147 3146 3146 3145 3145 3144 3144 3143 3143 3142 3142 3142 3142 3141 3141 3140 3140 3140 3139 3139 3138 3138 3137 3137 3137 3136 3136 3136 3135 3135 3134 3134 3134 3133 3133 3133 3132 3132 3132 3132 3131 3131 3131 3130 3130 3130 3129 3129 3129 3129 3128 3128 3128 3127 3127 3127 3127 3126 3126 3126 3125 3125 3125 3124 3124
3158 3158 3158 3158 3157 3157 3157 3157 3156 3156 3156 3155 3155 3155 3154 3154 3154 3153 3153 3153 3153 3152 3152 3152 3152 3151 3151 3150 3150 3150 3149 3149 3148 3148 3147 3147 3147 3146 3146 3145 3145 3144 3144 3143 3143 3142 3142 3142 3141 3141 3140 3140 3140 3139 3139 3139 3138 3138 3137 3137 3137 3136 3136 3135 3135 3135 3134 3134 3133 3133 3132 3132 3132 3131 3131 3131 3130 3130 3130 3129 3129 3129 3128 3128 3128 3127 3127 3127 3127 3126 3126 3126 3125 3125 3125 3124 3124 3124 3123 3123 3123 3122 3122
3158 3158 3157 3157 3157 3157 3156 3156 3156 3155 3155 3155 3154 3154 3154 3154 3153 3153 3153 3152 3152 3152 3152 3152 3151 3151 3150 3150 3150 3149 3149 3148 3148 3147 3147 3146 3146 3146 3145 3145 3144 3144 3143 3142 3142 3142 3141 3141 3140 3140 3139 3139 3138 3138 3138 3137 3137 3137 3137 3136 3136 3135 3135 3134 3134 3133 3133 3132 3132 3132 3131 3131 3131 3130 3130 3129 3129 3128 3128 3128 3127 3127 3127 3126 3126 3126 3125 3125 3125 3124 3124 3124 3123 3123 3123 3122 3122 3122 3122 3121 3121 3120 3120
3158 3157 3157 3157 3156 3156 3156 3156 3155 3155 3155 3154 3154 3154 3153 3153 3153 3153 3152 3152 3152 3152 3151 3151 3151 3150 3150 3149 3149 3148 3148 3148 3147 3147 3146 3146 3145 3145 3144 3144 3143 3143 3142 3142 3141 3141 3140 3140 3139 3139 3138 3138 3137 3137 3137 3136 3136 3136 3135 3135 3134 3134 3134 3133 3133 3132 3132 3132 3131 3131 3130 3130 3129 3129 3128 3128 3127 3127 3127 3127 3126 3126 3125 3125 3124 3124 3123 3123 3123 3122 3122 3122 3121 3121 3121 3120 3120 3120 3119 3119 3119 3118 3118
3157 3157 3156 3156 3156 3156 3155 3155 3155 3154 3154 3154 3154 3153 3153 3153 3152 3152 3152 3152 3152 3151 3151 3150 3150 3150 3149 3149 3148 3148 3147 3147 3147 3146 3146 3145 3145 3144 3144 3143 3143 3142 3142 3141 3141 3140 3140 3139 3139 3138 3137 3137 3136 3136 3135 3135 3135 3134 3134 3134 3133 3133 3132 3132 3132 3131 3131 3131 3130 3129 3129 3129 3128 3128 3127 3127 3126 3126 3125 3125 3125 3124 3124 3123 3123 3122 3122 3122 3121 3121 3120 3120 3119 3119 3119 3118 3118 3117 3117 3117 3117 3116 3116
3156 3156 3156 3155 3155 3155 3155 3154 3154 3154 3154 3153 3153 3153 3153 3152 3152 3152 3152 3151 3151 3151 3150 3150 3149 3149 3149 3148 3148 3147 3147 3146 3146 3146 3145 3144 3144 3143 3143 3142 3142 3142 3141 3140 3140 3139 3139 3138 3138 3137 3137 3136 3136 3135 3134 3134 3133 3133 3133 3132 3132 3132 3131 3131 3131 3130 3130 3129 3129 3128 3128 3127 3127 3127 3126 3126 3125 3125 3124 3124 3123 3123 3122 3122 3121 3121 3120 3120 3119 3119 3118 3118 3117 3117 3117 3116 3116 3116 3115 3115 3114 3114 3114
3155 3155 3155 3155 3155 3154 3154 3154 3154 3153 3153 3153 3153 3152 3152 3152 3152 3152 3151 3151 3150 3150 3150 3149 3149 3148 3148 3147 3147 3147 3146 3146 3145 3145 3144 3144 3143 3142 3142 3142 3141 3141 3140 3140 3139 3138 3138 3137 3137 3137 3136 3135 3135 3134 3133 3133 3132 3132 3132 3131 3131 3131 3130 3130 3129 3129 3128 3128 3127 3127 3127 3126 3126 3125 3125 3124 3124 3123 3123 3122 3122 3121 3121 3120 3120 3119 3119 3118 3118 3117 3117 3116 3116 3115 3115 3114 3114 3114 3113 3113 3112 3112 3112
3155 3155 3155 3154 3154 3154 3154 3153 3153 3153 3153 3152 3152 3152 3152 3152 3151 3151 3150 3150 3150 3149 3149 3148 3148 3147 3147 3147 3146 3146 3145 3145 3144 3144 3143 3143 3142 3142 3141 3141 3140 3140 3139 3139 3138 3137 3137 3137 3136 3136 3135 3134 3134 3133 3132 3132 3132 3131 3131 3130 3130 3129 3129 3128 3128 3128 3127 3127 3126 3126 3125 3125 3124 3124 3123 3123 3122 3122 3122 3121 3120 3120 3119 3119 3118 3118 3117 3117 3116 3116 3115 3115 3114 3113 3113 3112 3112 3112 3111 3111 3111 3110 3110
3154 3154 3154 3154 3154 3153 3153 3153 3153 3152 3152 3152 3152 3152 3151 3151 3151 3150 3150 3149 3149 3149 3148 3148 3147 3147 3146 3146 3145 3145 3144 3144 3143 3143 3142 3142 3141 3141 3140 3140 3139 3139 3138 3138 3137 3137 3136 3135 3135 3134 3134 3133 3132 3132 3132 3131 3130 3130 3129 3129 3128 3128 3128 3127 3127 3127 3126 3125 3125 3124 3124 3123 3123 3122 3122 3122 3121 3121 3120 3120 3119 3118 3118 3117 3117 3116 3116 3115 3115 3114 3113 3113 3112 3112 3111 3111 3110 3110 3109 3109 3108 3108 3108
3154 3153 3153 3153 3153 3153 3153 3152 3152 3152 3152 3152 3151 3151 3151 3150 3150 3149 3149 3149 3148 3148 3147 3147 3147 3146 3146 3145 3145 3144 3144 3143 3142 3142 3142 3141 3140 3140 3139 3139 3138 3137 3137 3137 3136 3136 3135 3134 3134 3133 3132 3132 3131 3131 3130 3130 3129 3129 3128 3127 3127 3127 3126 3126 3126 3125 3125 3124 3124 3123 3122 3122 3122 3121 3121 3120 3120 3119 3119 3118 3118 3117 3117 3116 3115 3115 3114 3114 3113 3112 3112 3111 3111 3110 3109 3109 3108 3108 3107 3107 3107 3106 3106
3153 3153 3153 3153 3153 3152 3152 3152 3152 3152 3151 3151 3151 3150 3150 3150 3149 3149 3148 3148 3147 3147 3147 3146 3146 3145 3145 3144 3144 3143 3143 3142 3142 3141 3141 3140 3139 3139 3138 3137 3137 3137 3136 3135 3135 3134 3134 3133 3132 3132 3131 3131 3130 3129 3129 3128 3128 3127 3127 3126 3126 3125 3125 3124 3124 3123 3123 3123 3122 3122 3121 3121 3120 3120 3119 3118 3118 3117 3117 3117 3116 3116 3115 3115 3114 3113 3113 3112 3112 3111 3110 3110 3109 3108 3108 3107 3107 3106 3106 3105 3105 3104 3104
3152 3152 3152 3152 3152 3152 3152 3152 3151 3151 3151 3150 3150 3150 3149 3149 3148 3148 3148 3147 3147 3146 3146 3146 3145 3144 3144 3143 3143 3142 3142 3141 3141 3140 3140 3139 3139 3138 3137 3137 3136 3135 3135 3134 3134 3133 3132 3132 3131 3131 3130 3129 3129 3128 3127 3127 3126 3126 3125 3125 3124 3124 3123 3123 3122 3122 3122 3121 3121 3120 3120 3119 3118 3118 3117 3117 3117 3116 3116 3115 3114 3114 3113 3113 3112 3112 3111 3110 3110 3109 3108 3108 3107 3107 3106 3106 3105 3104 3104 3103 3103 3102 3102
3152 3152 3152 3152 3152 3151 3151 3151 3151 3150 3150 3150 3149 3149 3149 3148 3148 3147 3147 3147 3146 3146 3145 3145 3144 3144 3143 3142 3142 3141 3141 3140 3140 3139 3139 3138 3138 3137 3136 3136 3135 3134 3134 3133 3133 3132 3132 3131 3130 3129 3129 3128 3128 3127 3127 3126 3125 3124 3124 3123 3123 3122 3122 3121 3121 3120 3120 3119 3119 3119 3118 3117 3117 3116 3116 3115 3115 3114 3114 3113 3112 3112 3112 3111 3110 3110 3109 3108 3108 3107 3107 3106 3105 3105 3104 3104 3103 3102 3102 3102 3101 3101 3100
3151 3151 3151 3151 3151 3151 3150 3150 3150 3150 3149 3149 3149 3148 3148 3147 3147 3147 3146 3146 3145 3145 3144 3144 3143 3143 3142 3142 3141 3140 3140 3139 3139 3138 3138 3137 3137 3136 3135 3135 3134 3133 3133 3132 3132 3131 3130 3130 3129 3128 3128 3127 3127 3126 3125 3125 3124 3123 3122 3122 3122 3121 3120 3120 3119 3119 3118 3118 3117 3117 3117 3116 3115 3115 3114 3114 3113 3112 3112 3111 3111 3110 3109 3109 3108 3108 3107 3107 3106 3105 3105 3104 3103 3103 3102 3102 3101 3101 3100 3100 3099 3099 3098
3150 3150 3150 3150 3150 3150 3150 3149 3149 3149 3149 3148 3148 3147 3147 3147 3146 3146 3146 3145 3145 3144 3143 3143 3142 3142 3141 3141 3140 3139 3139 3138 3137 3137 3137 3136 3136 3135 3134 3134 3133 3132 3132 3131 3130 3130 3129 3128 3128 3127 3127 3126 3125 3125 3124 3123 3122 3122 3121 3121 3120 3120 3119 3118 3118 3117 3117 3116 3116 3115 3115 3114 3114 3113 3112 3112 3112 3111 3110 3110 3109 3108 3107 3107 3106 3106 3105 3104 3104 3103 3102 3102 3101 3101 3100 3100 3099 3098 3098 3097 3097 3097 3096
3149 3149 3149 3149 3149 3149 3149 3149 3148 3148 3148 3148 3147 3147 3147 3146 3146 3145 3145 3144 3144 3143 3143 3142 3142 3141 3141 3140 3139 3138 3137 3137 3136 3136 3135 3135 3134 3134 3133 3132 3132 3131 3130 3130 3129 3128 3127 3127 3127 3126 3125 3125 3124 3123 3122 3122 3121 3121 3120 3119 3119 3118 3118 3117 3117 3116 3115 3115 3114 3114 3113 3113 3112 3112 3111 3110 3110 3109 3108 3108 3107 3106 3106 3105 3104 3103 3103 3102 3102 3101 3101 3100 3099 3098 3098 3097 3097 3096 3096 3095 3095 3094 3094
3148 3148 3148 3148 3148 3148 3148 3148 3148 3147 3147 3147 3147 3146 3146 3145 3145 3144 3144 3143 3143 3142 3142 3141 3141 3140 3140 3139 3138 3137 3137 3136 3135 3135 3134 3134 3133 3133 3132 3132 3131 3130 3129 3129 3128 3127 3126 3126 3125 3124 3124 3123 3122 3122 3121 3120 3120 3119 3118 3118 3117 3117 3116 3116 3115 3114 3114 3113 3112 3112 3112 3111 3110 3110 3109 3109 3108 3107 3107 3106 3105 3104 3104 3103 3102 3102 3101 3100 3100 3099 3098 3098 3097 3097 3096 3095 3095 3094 3093 3093 3092 3092 3091
3147 3147 3147 3147 3147 3147 3147 3147 3147 3147 3147 3146 3146 3145 3145 3144 3144 3143 3143 3142 3142 3141 3141 3140 3139 3139 3138 3138 3137 3136 3136 3135 3134 3133 3133 3132 3132 3131 3131 3130 3130 3129 3128 3128 3127 3126 3125 3124 3123 3123 3122 3122 3121 3120 3120 3119 3118 3117 3117 3116 3115 3115 3114 3114 3113 3112 3112 3112 3111 3110 3110 3109 3108 3108 3107 3107 3106 3106 3105 3104 3104 3103 3102 3101 3100 3100 3099 3098 3097 3097 3096 3096 3095 3094 3094 3093 3092 3092 3091 3091 3090 3089 3089
3146 3146 3147 3147 3147 3147 3147 3146 3146 3146 3146 3145 3145 3145 3144 3144 3143 3142 3142 3142 3141 3140 3140 3139 3138 3137 3137 3136 3136 3135 3134 3133 3133 3132 3132 3131 3130 3130 3129 3129 3128 3128 3127 3127 3126 3125 3124 3123 3122 3122 3121 3120 3119 3119 3118 3117 3117 3116 3115 3114 3114 3113 3112 3112 3112 3111 3110 3110 3109 3109 3108 3107 3107 3106 3106 3105 3104 3104 3103 3102 3102 3101 3100 3100 3099 3098 3097 3096 3096 3095 3094 3094 3093 3092 3092 3091 3090 3090 3089 3088 3088 3087 3087
3145 3145 3146 3146 3146 3146 3146 3145 3145 3145 3145 3145 3144 3144 3143 3143 3142 3142 3141 3140 3140 3139 3139 3138 3137 3136 3136 3135 3134 3134 3133 3132 3132 3131 3130 3130 3129 3128 3128 3127 3127 3126 3126 3125 3125 3124 3123 3122 3122 3121 3120 3119 3118 3117 3117 3116 3115 3114 3114 3113 3112 3112 3111 3111 3110 3109 3109 3108 3107 3107 3107 3106 3105 3104 3104 3103 3102 3102 3101 3100 3100 3099 3098 3097 3097 3096 3095 3094 3094 3093 3092 3092 3091 3090 3089 3089 3088 3087 3087 3086 3086 3085 3084
3144 3145 3145 3145 3145 3145 3145 3145 3144 3144 3144 3144 3143 3143 3142 3142 3141 3141 3140 3139 3139 3138 3137 3137 3136 3135 3135 3134 3133 3132 3132 3131 3130 3129 3128 3128 3127 3127 3126 3126 3125 3124 3124 3123 3123 3122 3122 3122 3121 3120 3119 3118 3117 3117 3116 3115 3114 3113 3113 3112 3111 3110 3110 3109 3109 3108 3107 3107 3106 3105 3105 3104 3103 3102 3102 3101 3100 3100 3099 3098 3097 3097 3096 3095 3095 3094 3093 3092 3092 3091 3090 3090 3089 3088 3087 3087 3086 3085 3085 3084 3083 3083 3082
3143 3144 3144 3144 3144 3144 3144 3144 3143 3143 3143 3143 3142 3142 3142 3141 3140 3140 3139 3138 3138 3137 3137 3136 3135 3134 3133 3133 3132 3132 3131 3130 3129 3128 3127 3126 3126 3126 3125 3125 3124 3123 3122 3122 3121 3121 3120 3120 3120 3119 3118 3117 3116 3115 3115 3114 3113 3112 3112 3111 3110 3109 3109 3108 3107 3107 3106 3105 3104 3104 3103 3102 3102 3101 3100 3099 3098 3097 3097 3096 3095 3095 3094 3093 3092 3092 3091 3090 3089 3089 3088 3087 3087 3086 3085 3084 3084 3083 3082 3082 3081 3081 3080
3142 3143 3143 3143 3143 3143 3143 3143 3142 3142 3142 3142 3141 3141 3140 3140 3139 3139 3138 3137 3137 3136 3135 3135 3134 3133 3132 3131 3131 3130 3130 3129 3128 3127 3126 3125 3124 3123 3123 3123 3122 3122 3121 3120 3119 3118 3118 3118 3118 3117 3117 3116 3115 3114 3113 3113 3112 3112 3111 3110 3109 3108 3108 3107 3106 3106 3105 3104 3103 3102 3102 3101 3100 3099 3098 3097 3096 3095 3094 3094 3093 3092 3092 3091 3090 3089 3089 3088 3087 3086 3086 3085 3084 3083 3083 3082 3081 3081 3080 3079 3079 3078 3077
3142 3142 3142 3142 3142 3142 3142 3142 3142 3141 3141 3141 3140 3140 3139 3139 3138 3138 3137 3137 3136 3135 3134 3133 3132 3132 3131 3130 3129 3128 3128 3127 3127 3126 3124 3123 3122 3121 3121 3120 3120 3120 3120 3118 3117 3117 3116 3116 3116 3116 3115 3114 3113 3112 3112 3111 3110 3110 3109 3109 3108 3107 3107 3106 3105 3105 3104 3103 3102 3102 3101 3100 3099 3098 3097 3096 3095 3093 3092 3092 3091 3090 3089 3089 3088 3087 3086 3085 3085 3084 3083 3082 3082 3081 3080 3079 3079 3078 3077 3077 3076 3075 3075
3141 3141 3141 3141 3141 3141 3141 3141 3141 3140 3140 3140 3139 3139 3138 3138 3138 3137 3137 3136 3135 3134 3133 3132 3131 3130 3129 3128 3127 3127 3127 3126 3125 3124 3123 3122 3121 3120 3119 3118 3118 3117 3117 3117 3116 3115 3113 3113 3113 3113 3112 3112 3111 3110 3109 3109 3108 3108 3107 3107 3106 3106 3105 3104 3104 3103 3103 3102 3102 3101 3100 3099 3098 3097 3096 3094 3093 3092 3091 3090 3089 3088 3087 3087 3086 3085 3084 3083 3082 3082 3081 3080 3079 3078 3077 3077 3076 3075 3074 3074 3073 3073 3072
3140 3140 3140 3140 3140 3140 3140 3140 3140 3139 3139 3139 3139 3138 3138 3137 3137 3136 3136 3135 3134 3133 3132 3132 3131 3129 3128 3127 3126 3125 3124 3124 3124 3123 3122 3121 3120 3119 3118 3117 3116 3115 3115 3114 3114 3113 3112 3111 3110 3110 3110 3109 3109 3108 3108 3107 3107 3106 3105 3105 3104 3104 3103 3102 3102 3101 3101 3100 3100 3099 3098 3098 3097 3096 3094 3093 3092 3090 3089 3088 3087 3086 3085 3084 3083 3082 3082 3081 3080 3079 3078 3077 3077 3076 3075 3074 3074 3073 3072 3071 3071 3070 3069
3139 3140 3140 3140 3140 3139 3139 3139 3139 3138 3138 3138 3138 3137 3137 3137 3136 3135 3135 3134 3133 3132 3131 3130 3130 3129 3127 3127 3126 3124 3123 3122 3122 3122 3121 3120 3119 3117 3116 3116 3115 3114 3113 3112 3112 3112 3111 3111 3110 3110 3109 3108 3107 3107 3107 3106 3105 3104 3103 3103 3102 3102 3101 3101 3100 3099 3099 3098 3098 3097 3097 3096 3095 3094 3093 3092 3090 3088 3087 3086 3085 3084 3082 3082 3081 3080 3079 3078 3077 3077 3076 3075 3074 3074 3073 3072 3072 3071 3070 3069 3068 3067 3067
3139 3139 3139 3139 3139 3138 3138 3138 3138 3137 3137 3137 3137 3137 3136 3136 3135 3134 3133 3132 3132 3131 3130 3129 3128 3127 3127 3126 3125 3124 3122 3121 3120 3120 3119 3118 3117 3117 3115 3114 3113 3113 3112 3112 3111 3110 3109 3109 3109 3108 3108 3107 3106 3105 3105 3104 3103 3102 3102 3101 3100 3100 3099 3098 3098 3097 3097 3096 3096 3095 3094 3094 3093 3092 3091 3090 3088 3087 3085 3084 3083 3082 3080 3079 3078 3077 3077 3076 3075 3074 3073 3072 3072 3071 3070 3070 3069 3068 3067 3067 3066 3065 3064
3138 3138 3138 3138 3138 3138 3137 3137 3137 3137 3136 3136 3136 3135 3135 3134 3134 3133 3132 3132 3131 3130 3129 3128 3127 3127 3126 3125 3124 3123 3122 3120 3119 3118 3118 3117 3116 3116 3114 3113 3112 3111 3110 3109 3109 3108 3107 3107 3106 3106 3107 3106 3104 3103 3102 3102 3102 3101 3100 3099 3098 3098 3097 3097 3096 3095 3095 3094 3093 3093 3092 3091 3091 3090 3089 3088 3087 3085 3084 3082 3081 3080 3078 3077 3076 3075 3074 3073 3072 3071 3070 3070 3069 3068 3068 3067 3067 3066 3065 3064 3063 3062 3062
3137 3137 3137 3137 3137 3137 3137 3136 3136 3136 3135 3135 3135 3134 3134 3133 3132 3132 3131 3131 3130 3129 3128 3127 3127 3126 3125 3124 3123 3122 3121 3120 3118 3117 3117 3116 3115 3114 3113 3112 3111 3110 3109 3108 3107 3107 3106 3105 3104 3104 3104 3104 3103 3102 3100 3100 3100 3099 3098 3097 3097 3096 3095 3095 3094 3093 3092 3092 3091 3091 3090 3089 3088 3087 3087 3086 3084 3083 3082 3080 3079 3078 3077 3075 3074 3072 3071 3070 3069 3068 3067 3067 3066 3065 3065 3064 3064 3063 3062 3062 3061 3060 3059
3136 3136 3136 3136 3136 3136 3136 3135 3135 3134 3134 3134 3133 3133 3132 3132 3131 3131 3130 3130 3129 3128 3127 3127 3126 3125 3124 3123 3122 3121 3120 3119 3118 3117 3115 3114 3114 3113 3112 3111 3110 3109 3108 3107 3106 3105 3104 3103 3102 3102 3101 3102 3102 3101 3099 3098 3097 3097 3097 3096 3095 3094 3093 3093 3092 3091 3091 3090 3089 3088 3087 3087 3086 3085 3084 3083 3082 3081 3079 3078 3077 3075 3074 3073 3072 3070 3069 3067 3066 3065 3064 3063 3063 3062 3062 3061 3061 3060 3059 3058 3058 3057 3057
3135 3135 3135 3135 3135 3135 3134 3134 3134 3133 3133 3133 3132 3132 3131 3131 3130 3130 3129 3128 3128 3127 3126 3126 3125 3124 3123 3122 3121 3120 3119 3118 3117 3116 3115 3113 3112 3111 3110 3110 3109 3108 3107 3106 3105 3104 3102 3101 3101 3100 3099 3099 3100 3100 3099 3097 3096 3095 3094 3094 3093 3092 3092 3091 3090 3090 3089 3088 3087 3087 3086 3085 3084 3083 3082 3081 3080 3078 3077 3076 3074 3073 3072 3070 3069 3068 3067 3066 3064 3063 3062 3061 3060 3059 3059 3058 3057 3057 3056 3056 3055 3054 3053
3134 3134 3134 3133 3133 3133 3133 3133 3132 3132 3132 3132 3131 3131 3130 3130 3129 3128 3128 3127 3127 3126 3125 3125 3124 3123 3122 3121 3120 3119 3118 3117 3116 3115 3114 3112 3111 3110 3109 3108 3107 3106 3105 3104 3103 3102 3101 3100 3099 3098 3097 3097 3097 3097 3098 3097 3096 3094 3092 3092 3092 3091 3090 3089 3089 3088 3087 3086 3085 3084 3084 3082 3082 3081 3079 3078 3077 3076 3075 3073 3072 3070 3069 3068 3067 3066 3065 3064 3062 3061 3060 3059 3058 3057 3056 3055 3054 3054 3053 3052 3052 3051 3050
3132 3132 3132 3132 3132 3132 3132 3132 3132 3131 3131 3130 3130 3129 3129 3128 3128 3127 3127 3126 3126 3125 3124 3123 3123 3122 3121 3120 3119 3118 3117 3116 3114 3113 3112 3112 3110 3109 3108 3107 3106 3104 3103 3102 3101 3100 3099 3098 3097 3097 3096 3095 3094 3094 3094 3095 3094 3093 3092 3091 3090 3089 3088 3088 3087 3086 3085 3084 3083 3082 3082 3081 3080 3078 3077 3076 3075 3074 3072 3071 3069 3068 3067 3065 3064 3063 3062 3061 3060 3059 3058 3057 3056 3055 3054 3053 3052 3051 3050 3049 3048 3048 3047